Torna al catalogo

STARLINK-5999

AttivoComunicazioniVLEO
NORAD 56909·PAYLOAD·🇺🇸 United States

Lanciato Jun 12, 2023 da Cape Canaveral Space Force Station

Loading…

Prossimi Passaggi (prossime 24 ore)

TLE

AggiornatoSource: CelesTrak SupGP

Epoca: Sep 14, 2026, 21:08 UTC

1 56909C 23083AK  26257.88104167  .00029470  00000+0  10676-2 0  2572
2 56909  43.0016  82.6488 0001830 268.5783 235.7279 15.27557121    14

Traccia STARLINK-5999 in tempo reale con AllMySat

Download on the App Store